Location: S�tio Afonso Gruber
(26.1760°S, 49.5250°W)
Time: 09:57:45
(UTC+00:00)

M-CUBED/EXP-1 PRIME - Visible Passes

Search period start: 27 November 2022 00:00
Search period end: 07 December 2022 00:00
Orbit: 419 x 617 km, 101.7° (Epoch: 26 November)

Date Brightness Start Highest point End Pass type
(mag) Time Alt. Az. Time Alt. Az. Time Alt. Az.
28 Nov ? 23:23:06 10° WNW 23:24:17 11° WNW 23:25:27 10° W visible
29 Nov ? 23:07:23 10° NNW 23:10:05 19° WNW 23:12:42 10° SW visible
30 Nov ? 22:52:32 10° NNW 22:55:53 31° WNW 22:59:06 10° SW visible
01 Dec ? 22:38:02 10° N 22:41:42 56° WNW 22:45:09 10° SSW visible
02 Dec ? 22:23:48 10° NNE 22:27:28 78° ESE 22:30:58 10° SSW visible
04 Dec ? 23:31:03 10° NW 23:32:34 12° WNW 23:34:03 10° WSW visible
05 Dec ? 23:15:29 10° NNW 23:18:14 21° WNW 23:20:54 10° SW visible
06 Dec ? 23:00:37 10° N 23:03:54 36° WNW 23:07:05 10° SW visible
